Weather in Segot

Russia / Ivanovo Oblast     57°05′06″N   43°00′51″E
temp.,
°C
wind,
m/s
gust,
m/s
humid.,
%
clouds,
%
prec.,
mm/h
press.,
hPa
HPBL,
m
14 june, mon
mon1400:00+15sw229192 0.4 101021
03:00+14wsw3493100 0.4 101161
06:00+16wsw248994 0.0 1012115
09:00+20sw3476100 0.0 1013431
12:00+22wsw346216 0.7 10141251
15:00+23wnw34550 0.8 10141433
18:00+23w35665 0.0 1014249
21:00+20wnw227092 0.0 101319
15 june, tue
tue1500:00+17nw22784 0.0 101411
03:00+15nnw22855 0.0 101411
06:00+17ne11844 0.0 101471
09:00+21se23727 0.0 1014439
12:00+22ese336723 0.1 1013773
15:00+21sse3680100 0.7 1012116
18:00+20s227729 0.1 101016
21:00+18s338493 0.6 101037
16 june, wed
wed1600:00+17ssw339013 0.1 100934
03:00+15ssw229223 0.8 100911
06:00+17sw1292100 4.9 100982
09:00+20wsw128596 6.4 1008106
12:00+20nw81083100 2.3 1009447
15:00+20nnw79681 2.8 1011860
18:00+20nnw48660 0.0 1011495
21:00+14nw49620 0.0 1014123
17 june, thu
thu1700:00+12nw49655 0.0 1017146
03:00+11nw48655 0.0 1018125
06:00+13nw410715 0.0 1020248
09:00+17nw58540 0.0 10201015
12:00+19nnw68451 0.0 10211473
15:00+20nnw58495 0.0 10211737
18:00+19nnw47619 0.0 1022310
21:00+14nw46660 0.0 102389
18 june, fri
fri1800:00+12nw34680 0.0 102554
03:00+11nw34715 0.0 102654
06:00+14nnw23735 0.0 1027110
09:00+18n12615 0.0 1027369
12:00+21w135216 0.0 10261145
15:00+23w3553100 0.0 10251348
18:00+23w246682 0.0 1024208
21:00+18sw338025 0.0 102416